GFSGBSN_sfc_30mbdewp_000.txt.gz
Dewpoint
52 54 54 54 55 55 55 55 55 53 53 52 53 54 54 52 52 52 52 52 52 52 52 52 52 53 52 40 26 26 27 36 38 36 27 19 17 14 9 8 6 7 4 5 4 4 7
53 53 54 54 55 55 55 55 53 53 52 53 54 54 54 53 52 52 52 52 51 51 51 51 52 53 48 31 23 23 23 23 21 23 15 15 14 12 6 4 4 6 6 6 8 13 12
53 53 53 54 55 55 54 54 53 53 53 53 54 55 54 53 52 52 52 51 51 50 51 51 52 51 41 30 21 20 21 21 21 22 19 18 18 11 11 11 13 10 10 13 15 17 16
53 53 52 54 54 54 54 53 52 53 53 54 55 54 54 54 52 52 51 51 51 51 51 51 51 50 34 25 24 20 18 17 18 22 21 19 19 20 19 14 10 10 12 12 15 16 19
53 53 51 54 55 54 54 53 52 52 54 54 54 54 54 54 53 52 52 52 52 52 52 51 51 49 29 23 21 21 19 18 19 23 21 20 21 14 15 10 11 13 10 12 17 16 18
52 52 51 53 55 54 54 53 53 53 53 53 53 53 54 54 54 54 53 53 53 52 52 49 45 38 21 19 20 19 20 23 21 22 20 20 18 14 13 13 11 11 8 6 5 16 12
52 51 50 53 54 53 53 53 53 53 53 53 53 53 53 53 53 53 52 49 40 36 37 25 19 20 15 14 20 19 20 21 24 21 20 16 16 19 19 17 14 10 7 6 14 18 15
51 50 49 53 53 53 53 53 53 53 53 52 52 53 51 53 53 53 52 44 40 34 25 23 23 21 22 22 17 16 21 21 19 17 17 9 17 19 17 16 14 12 11 11 15 17 15
51 48 49 53 53 53 53 53 53 53 52 51 51 52 52 51 53 53 49 45 46 46 23 23 23 21 24 24 22 21 25 17 16 15 9 21 20 19 18 19 18 16 15 22 20 20 18
50 47 50 52 53 53 52 52 52 52 52 51 50 51 52 52 51 45 42 45 49 49 21 15 20 22 23 23 23 24 25 23 15 12 17 21 21 22 21 22 23 18 25 23 20 18 14
49 47 50 51 52 52 51 52 52 52 51 51 50 51 51 51 52 39 45 48 50 48 23 20 20 26 21 25 24 24 26 23 17 19 22 22 24 24 24 24 24 24 26 23 21 19 17
48 48 51 51 52 51 51 51 51 51 51 50 50 51 51 50 55 47 50 52 47 39 26 19 22 22 22 23 24 25 24 27 29 22 24 24 25 27 27 26 25 27 26 24 24 22 21
47 49 51 51 52 51 51 51 51 51 51 52 50 49 50 52 47 53 55 46 32 30 22 20 21 23 22 23 24 25 25 26 25 22 22 24 25 28 26 27 28 24 24 22 23 21 21
48 50 50 51 51 51 50 51 51 51 51 52 52 53 55 53 53 58 50 35 28 20 18 18 21 23 22 24 25 25 25 24 26 29 21 21 25 26 26 26 24 25 23 26 21 22 21
49 50 49 50 51 50 50 50 51 51 51 52 53 57 50 58 59 55 42 38 31 19 20 19 21 21 23 24 25 26 25 24 25 28 24 23 24 27 26 27 25 26 24 22 26 29 24
49 50 49 49 50 50 50 50 50 50 51 52 45 42 42 57 58 52 41 37 27 24 19 20 18 22 21 21 23 24 25 28 26 27 24 23 25 23 23 28 29 26 24 23 24 20 16
50 49 48 49 50 50 49 49 50 50 50 52 50 34 53 54 55 37 39 34 26 25 28 20 22 21 23 22 23 25 26 28 30 28 27 25 27 23 25 26 25 26 25 24 20 22 20
50 49 48 49 50 50 49 48 49 49 50 49 44 34 52 54 32 33 36 29 28 29 31 31 28 26 26 26 26 27 28 31 32 30 28 27 27 25 21 25 27 25 25 22 24 22 28
50 49 49 49 50 49 49 48 49 49 48 50 38 43 50 49 37 43 34 31 29 27 27 28 30 31 31 30 29 29 34 35 35 35 34 31 30 26 23 29 28 23 25 23 30 28 23
49 49 48 49 49 49 49 48 48 49 48 48 41 36 35 39 43 35 33 31 32 33 32 32 31 31 31 31 31 31 34 36 35 35 33 36 26 24 21 18 19 18 19 20 20 26 25
49 49 48 49 49 48 49 49 48 49 48 48 42 36 31 35 38 33 31 29 30 31 31 32 30 30 31 30 30 30 33 33 33 32 34 32 29 29 27 23 20 19 19 20 19 21 20
50 49 48 49 49 48 49 49 48 49 47 48 40 38 39 37 35 33 33 30 28 28 31 28 29 30 30 33 28 28 27 26 29 33 32 34 37 33 28 23 22 22 21 20 19 19 20
50 49 48 49 49 49 50 48 48 49 51 43 43 45 40 39 35 34 37 32 29 33 35 29 30 31 34 33 35 35 35 33 31 33 36 38 37 32 28 31 31 29 29 23 22 22 23
50 49 49 49 49 50 50 49 47 49 50 54 49 41 45 40 39 37 34 31 30 33 31 30 31 35 36 37 38 39 39 37 35 35 39 37 37 37 29 32 23 26 25 25 24 24 24
50 49 50 49 49 49 50 49 47 48 50 50 46 48 45 42 43 36 33 31 33 32 33 38 37 37 37 38 38 29 29 26 33 32 36 40 39 30 31 27 25 26 28 28 27 27 28
50 50 50 50 49 49 49 49 48 47 49 52 52 54 45 43 40 34 32 35 37 40 41 41 42 42 40 43 36 26 29 28 30 31 35 38 40 37 31 27 22 26 28 31 31 27 37
50 50 50 49 49 49 49 49 49 48 48 53 53 55 53 44 39 39 36 38 39 40 39 41 43 43 41 42 33 34 31 29 27 30 33 32 35 32 30 28 30 28 30 32 28 33 40
50 50 49 49 49 49 49 49 50 48 48 52 54 53 54 43 43 43 41 38 37 39 42 41 40 44 45 36 36 38 37 34 32 30 32 30 32 31 31 28 26 33 31 31 38 41 41
50 50 49 49 50 49 49 49 50 50 48 50 51 51 53 49 47 50 49 49 46 44 41 43 37 43 45 41 42 42 37 38 37 29 25 27 33 33 33 33 34 35 36 40 43 41 40

GFSGBSN_sfc_30mbdewp_003.txt.gz
Dewpoint
52 53 54 54 55 55 53 53 53 52 52 52 52 52 52 53 53 52 52 52 51 52 51 51 51 52 52 46 34 28 39 39 42 36 34 32 28 19 13 14 8 5 5 4 3 5 11
52 54 54 54 54 54 54 53 52 52 52 52 52 52 54 54 54 52 52 52 51 51 50 51 51 52 48 31 30 25 25 39 31 35 33 32 21 18 12 8 6 8 5 3 3 8 12
53 54 54 54 54 54 53 53 52 52 52 52 52 53 54 54 53 52 52 52 51 51 50 51 51 51 47 37 29 23 23 21 20 22 21 19 20 18 12 13 12 9 6 7 9 16 14
53 53 53 53 54 53 53 52 52 52 52 52 54 55 55 54 52 52 52 51 51 50 50 51 51 51 34 33 23 19 20 18 18 22 22 22 21 19 19 11 9 9 12 11 15 18 17
53 53 53 52 54 53 53 53 52 52 52 53 54 54 54 54 53 52 51 51 51 51 51 51 50 51 36 23 18 21 19 19 20 23 19 19 21 18 14 9 9 11 9 14 14 18 20
53 53 51 51 54 53 53 54 53 52 53 53 54 53 53 54 53 53 52 52 53 52 52 51 49 41 41 21 21 19 21 20 23 23 21 19 20 17 16 16 12 13 12 16 17 16 13
52 52 50 51 54 53 53 53 53 53 53 53 53 53 53 53 54 53 52 49 42 38 47 33 31 32 15 15 18 19 20 19 24 22 21 22 21 19 17 16 14 13 12 16 18 17 16
52 51 49 52 54 53 53 53 54 53 53 53 53 53 52 53 53 53 51 50 44 45 30 35 22 20 22 20 19 19 22 22 21 20 21 16 19 19 19 19 18 12 18 21 18 17 14
51 50 48 52 53 53 53 53 53 53 53 53 52 53 52 53 53 51 48 47 49 49 28 24 23 22 24 25 23 20 25 25 19 18 22 21 19 19 19 24 22 22 22 21 20 20 18
51 49 48 51 52 53 52 52 52 52 53 52 52 52 52 53 48 52 48 48 51 53 23 18 21 21 23 24 22 23 23 24 18 22 23 21 22 24 23 24 24 25 27 24 21 20 16
51 47 49 51 52 52 51 51 52 52 52 52 52 52 51 52 48 49 48 51 50 48 22 19 23 25 22 24 24 23 26 28 23 17 24 23 25 27 25 24 25 26 26 24 23 21 20
50 47 50 51 52 52 51 51 51 52 52 52 51 52 51 50 51 54 55 56 41 36 26 19 21 25 20 23 25 24 23 28 29 25 25 24 28 27 26 27 25 25 27 27 26 25 21
48 48 50 51 51 51 51 51 51 52 52 52 52 52 50 53 52 57 58 44 31 30 25 19 21 23 23 23 24 26 27 27 28 23 23 25 27 28 27 27 28 28 26 25 23 23 22
48 50 50 50 51 51 51 50 51 51 52 53 54 52 56 60 60 58 53 39 29 25 20 20 22 24 23 24 25 26 26 25 26 30 28 24 25 26 27 26 24 27 26 22 22 20 21
49 50 49 49 50 50 50 50 51 51 52 53 54 56 57 57 60 56 46 37 34 22 20 20 22 23 23 25 27 27 25 24 26 27 25 28 25 28 25 26 27 28 21 22 25 30 23
49 50 48 49 50 50 50 50 50 51 51 53 52 51 51 57 59 50 43 40 32 24 21 21 19 22 21 22 24 26 27 29 28 28 26 24 24 23 23 28 29 24 24 24 22 19 16
49 49 48 49 49 50 49 49 50 50 51 52 51 39 53 58 51 41 38 38 25 29 32 25 24 20 25 22 24 26 28 30 31 29 27 31 31 23 25 26 27 26 27 25 24 23 19
49 49 48 49 50 49 49 49 50 50 50 50 50 39 54 55 27 38 36 38 27 28 31 31 31 27 26 26 28 30 32 31 34 35 27 27 28 23 24 26 27 26 26 27 22 27 29
49 49 48 49 49 48 49 49 49 49 49 52 44 47 53 55 27 35 39 30 29 28 28 28 30 31 31 31 30 34 35 37 37 34 33 31 27 24 27 30 29 24 25 30 31 26 20
49 49 48 49 49 48 48 48 49 50 46 49 48 34 44 46 46 42 35 31 32 34 32 32 32 31 33 31 33 34 35 37 35 31 33 37 29 23 22 22 22 19 21 24 29 27 25
49 49 48 49 48 47 48 48 49 49 47 47 47 37 33 28 32 38 37 33 32 31 32 33 30 31 32 31 32 34 35 35 35 31 34 34 32 29 24 24 24 22 21 22 21 22 22
49 49 48 49 48 48 49 48 48 49 47 46 45 42 37 31 31 36 36 31 32 31 32 31 29 32 33 32 32 33 33 33 34 34 35 39 33 29 25 30 26 24 25 24 23 21 21
49 49 48 49 49 49 49 48 48 49 51 48 48 47 45 44 33 36 34 32 33 33 32 34 34 36 35 38 39 39 36 36 38 35 38 36 32 31 26 31 32 26 26 28 25 25 24
49 48 49 49 49 49 49 48 48 49 50 55 52 51 41 35 42 38 37 35 33 31 32 38 38 35 39 36 33 35 34 35 37 40 36 33 36 33 23 30 16 29 28 28 28 29 33
49 48 49 49 49 49 49 48 48 48 50 53 52 52 45 36 44 37 35 35 40 41 39 38 38 38 40 41 27 23 24 25 31 39 40 39 36 26 22 25 24 27 28 28 28 32 38
49 49 49 49 49 49 48 49 48 48 49 54 52 56 49 41 41 41 36 37 39 40 40 41 44 45 45 40 29 27 24 26 29 32 37 40 37 33 29 19 9 26 32 33 32 28 39
49 49 49 49 49 49 48 49 49 48 48 54 52 56 53 42 44 44 37 38 43 42 40 42 43 42 45 34 32 29 31 32 29 29 32 33 34 28 30 25 27 32 32 33 27 26 42
49 49 49 49 49 49 49 48 50 50 48 53 52 54 54 44 44 48 47 39 41 42 38 42 40 43 42 31 29 34 34 31 31 32 31 25 27 29 30 27 22 32 32 29 35 42 42
50 49 49 49 50 49 49 48 49 50 48 52 53 54 56 49 48 51 50 48 46 46 43 43 33 45 43 36 40 41 34 38 34 26 33 28 31 32 30 28 31 36 34 43 43 42 41

GFSGBSN_sfc_30mbdewp_006.txt.gz
Dewpoint
54 53 53 54 55 55 54 53 53 53 52 52 52 51 51 52 52 53 51 51 51 51 51 50 50 51 51 45 33 30 36 50 49 41 34 30 29 26 20 15 9 4 2 2 6 12 7
53 53 54 55 55 54 53 53 53 52 52 51 51 51 52 52 54 54 51 51 51 50 50 50 50 51 47 29 33 29 34 43 35 33 32 33 27 23 19 16 7 6 3 1 4 11 12
53 53 54 54 54 53 53 53 52 52 52 51 52 52 52 52 54 54 51 51 51 50 50 50 50 51 48 33 36 33 25 26 31 32 29 24 30 20 18 10 10 6 3 5 3 13 11
53 54 54 54 53 54 53 53 52 52 52 52 52 53 54 55 53 51 51 51 50 50 50 50 50 50 31 35 35 24 19 19 21 25 21 20 22 19 13 11 11 9 9 6 12 16 16
53 54 54 53 52 53 53 53 52 52 52 52 53 54 54 54 53 51 51 50 50 50 50 50 49 50 26 38 20 19 20 18 22 22 23 18 22 17 14 7 8 13 7 12 13 17 17
53 54 53 52 52 53 53 52 52 52 52 53 53 53 53 54 53 53 51 50 52 51 51 51 49 41 38 30 20 19 20 20 23 24 22 19 22 17 19 13 4 8 12 13 13 15 19
53 54 53 51 52 53 53 53 53 53 53 53 53 53 53 53 53 53 51 49 41 39 47 26 29 35 30 28 19 18 19 19 24 23 20 24 19 16 16 17 16 14 16 16 17 16 14
54 53 52 50 52 54 53 53 54 53 53 53 53 53 53 53 53 53 51 47 45 45 32 36 37 35 29 19 20 19 23 22 21 20 22 20 18 19 20 24 22 20 18 18 18 19 14
53 52 50 49 52 54 53 53 53 52 53 52 52 52 52 53 53 50 44 42 49 48 35 24 26 23 23 25 20 20 25 25 21 19 21 20 19 20 24 23 23 26 21 21 19 20 19
52 51 49 50 52 53 52 52 52 52 52 52 52 52 51 53 47 50 42 42 48 48 21 17 20 18 23 25 21 23 23 24 23 22 22 21 26 26 25 23 25 24 27 24 21 17 8
51 50 47 50 51 52 51 51 51 52 52 51 52 52 52 52 46 50 48 54 53 46 15 18 23 25 23 24 24 22 26 28 22 18 24 25 26 26 24 24 25 25 26 24 23 21 22
51 49 48 51 51 51 51 51 51 52 52 50 52 52 52 51 50 50 57 55 40 31 18 21 23 20 18 23 24 23 24 30 29 25 25 25 28 26 26 27 26 25 27 29 28 26 20
51 48 49 50 51 51 51 50 51 51 51 51 52 53 50 53 51 56 57 38 26 27 28 18 21 23 22 23 25 26 27 26 26 23 23 26 27 27 28 27 27 27 29 23 22 22 20
50 48 50 51 51 50 50 50 51 51 51 52 54 53 51 53 60 57 46 30 26 27 22 21 23 24 22 25 27 28 26 24 26 29 26 24 24 25 25 25 25 26 26 22 21 18 19
48 50 50 50 50 50 50 50 50 51 51 53 54 52 57 55 59 51 41 34 32 27 22 21 24 24 24 25 26 25 25 24 26 28 25 25 24 28 24 26 28 27 22 25 25 28 21
49 50 49 50 49 50 48 50 50 51 51 53 49 50 47 56 55 44 40 38 35 29 26 22 21 24 22 22 25 27 27 30 29 27 28 27 21 24 23 30 29 21 25 24 22 16 15
49 50 48 50 50 49 49 49 50 50 51 52 51 33 42 58 42 35 35 38 33 29 32 22 23 21 23 22 25 27 29 31 33 31 29 32 24 24 29 26 25 26 25 26 25 23 16
49 49 48 49 50 49 49 49 50 50 51 50 48 32 53 42 21 38 35 37 30 27 31 31 32 30 25 29 32 32 32 33 37 36 24 30 26 23 24 26 27 26 27 26 18 25 28
49 48 49 49 49 49 49 49 49 49 50 48 43 47 53 42 18 27 37 34 29 28 28 29 30 32 32 31 31 35 35 37 32 33 32 31 24 22 27 30 28 25 26 31 28 24 21
49 48 49 49 48 47 49 49 49 48 48 51 46 36 41 46 41 34 31 31 31 34 32 32 31 33 32 32 36 34 35 36 31 30 34 36 31 23 18 22 23 19 21 30 26 22 22
49 48 49 48 47 48 49 48 49 48 47 47 47 33 31 24 32 41 39 32 31 30 32 32 30 32 31 31 34 35 35 34 34 32 34 34 27 29 25 27 26 23 23 23 24 26 23
49 48 49 48 47 49 48 48 49 48 46 45 43 40 38 26 28 36 38 34 32 32 31 31 29 34 33 32 32 33 32 33 32 34 37 37 29 28 23 31 30 22 22 24 23 22 23
49 48 49 48 49 49 48 48 49 49 49 43 47 48 34 42 29 33 34 33 33 33 33 34 36 35 33 36 38 37 39 38 36 34 36 33 28 24 15 30 29 20 25 27 26 30 25
49 48 49 49 49 49 48 48 49 50 52 54 53 49 39 36 36 30 37 35 34 33 34 38 37 35 38 40 34 32 33 38 39 36 34 33 33 28 18 24 9 27 29 29 33 35 35
48 48 49 49 49 48 49 48 48 49 50 52 52 50 39 34 42 38 37 39 39 40 39 39 40 39 39 33 26 28 28 28 36 39 40 34 29 25 16 20 18 24 28 27 26 33 37
48 49 49 49 48 48 49 49 48 48 51 51 52 54 41 35 40 43 39 39 36 37 38 41 44 46 40 34 25 17 12 20 27 35 37 37 31 23 27 12 4 22 32 33 31 27 38
49 49 49 48 48 48 49 50 49 48 50 52 50 55 49 40 43 42 37 38 42 40 38 42 41 40 37 28 25 29 30 29 26 27 30 32 32 24 26 20 22 26 31 33 26 19 39
49 49 48 49 49 48 48 49 49 48 50 53 51 54 48 43 47 49 46 41 42 40 36 41 38 39 36 26 22 30 33 30 30 31 30 24 23 27 28 25 17 30 33 29 29 41 41
49 48 49 49 49 49 48 49 49 49 51 55 49 54 54 45 47 49 49 49 46 41 42 42 31 40 37 32 34 37 33 36 30 26 33 24 24 24 28 25 29 32 32 37 40 40 41

GFSGBSN_sfc_30mbdewp_009.txt.gz
Dewpoint
53 54 54 54 54 55 54 53 53 53 52 52 51 51 51 51 52 52 52 51 51 50 50 50 50 50 51 45 32 33 49 56 46 37 30 28 28 26 21 17 21 12 4 5 7 6 5
53 54 54 54 54 54 54 53 53 52 52 52 51 51 51 51 51 52 52 51 50 50 50 49 50 50 46 27 31 33 43 43 39 36 33 31 24 28 23 17 8 6 3 4 10 11 5
55 54 53 53 54 54 54 52 52 52 52 52 51 51 51 51 51 52 52 51 50 50 49 49 50 50 47 27 35 38 33 34 35 32 28 33 32 27 19 16 10 5 1 4 5 11 10
55 54 54 54 54 54 53 53 52 52 52 52 51 51 51 52 52 52 51 50 50 50 49 49 50 50 30 35 37 34 22 19 25 34 30 23 29 26 13 13 11 9 9 7 9 14 16
54 54 54 54 54 53 52 53 52 52 52 52 51 52 54 54 53 51 50 50 50 49 49 50 49 50 23 33 27 23 20 18 22 24 26 20 23 17 14 9 8 12 7 9 12 15 16
54 54 54 54 53 52 53 53 52 52 52 52 53 54 53 54 54 51 50 50 50 51 50 51 49 39 33 23 23 20 20 20 23 24 21 23 22 16 18 6 -1 5 8 11 11 15 18
54 54 54 54 53 51 53 53 52 52 53 54 53 53 53 53 53 52 50 49 41 40 48 24 26 34 33 34 19 18 19 22 24 23 21 23 18 15 17 17 16 14 15 14 16 17 23
54 54 54 54 52 51 54 53 53 54 53 53 53 53 53 53 53 53 51 46 44 45 37 37 38 36 35 31 18 19 25 21 21 20 21 19 18 19 24 24 19 20 17 18 20 23 27
54 54 54 53 51 52 54 53 53 53 52 53 52 52 53 53 53 51 44 39 48 44 37 25 33 30 24 24 18 19 25 24 21 19 20 18 19 22 23 24 22 25 21 19 19 25 28
53 53 53 52 50 52 54 53 52 52 52 52 52 52 53 53 47 47 40 43 49 42 22 19 19 18 24 25 20 23 24 23 24 21 21 23 29 25 24 22 25 22 26 23 21 23 21
53 52 52 51 49 52 52 52 51 51 52 52 52 52 53 50 46 49 47 55 52 42 9 17 23 25 22 25 22 20 28 28 22 22 24 25 26 25 23 23 26 25 26 23 23 20 20
52 52 51 49 50 51 52 51 51 51 52 52 52 52 52 50 49 48 55 49 38 27 16 20 22 21 20 24 23 24 28 31 29 26 26 26 28 26 26 27 27 26 28 29 29 25 19
52 51 50 49 50 51 51 51 50 51 51 52 52 52 50 52 50 56 54 34 21 28 26 20 20 21 22 23 26 26 26 26 25 22 24 26 26 27 28 27 27 27 27 22 21 21 21
51 51 50 49 51 51 51 50 50 51 51 52 53 52 50 50 57 55 41 25 26 26 24 22 23 23 23 26 27 27 26 24 27 28 26 24 23 25 24 25 25 26 27 23 19 21 19
51 50 49 50 51 51 51 50 50 51 51 53 53 50 55 56 58 48 34 21 30 29 23 22 25 23 24 26 25 25 26 24 27 27 25 24 23 28 25 26 28 25 21 26 25 26 22
50 49 49 50 50 50 50 50 50 51 52 53 50 50 47 56 50 42 35 36 37 35 26 24 22 24 21 24 25 27 27 30 29 29 29 28 20 25 24 29 28 24 28 21 22 13 15
50 49 50 50 50 50 48 50 50 51 52 53 47 31 38 53 36 30 25 37 38 29 31 22 22 23 23 22 27 28 29 32 34 32 30 32 22 23 28 26 25 26 24 25 26 23 14
49 50 49 50 50 49 49 49 50 50 52 50 42 24 51 36 25 37 29 37 37 27 30 32 31 27 25 30 32 31 30 33 36 35 25 31 26 24 24 28 30 26 26 24 14 21 25
49 49 49 50 49 49 49 49 50 50 50 48 39 48 52 32 21 26 31 36 31 28 29 30 30 32 33 33 30 34 34 35 30 32 30 30 25 23 26 28 27 26 28 28 26 25 25
49 49 49 50 48 49 49 49 49 50 50 48 42 40 42 42 34 22 28 32 31 33 32 32 32 33 32 34 36 34 34 35 31 32 36 34 29 21 15 22 24 19 23 28 24 20 20
49 48 49 48 48 48 48 49 49 49 49 48 44 32 36 34 34 41 35 34 31 30 32 32 30 32 31 32 34 34 35 33 32 34 36 32 23 28 27 28 26 23 22 26 26 26 22
48 49 48 48 48 48 48 49 49 48 48 45 44 35 36 28 30 39 38 36 31 31 31 30 29 34 33 31 31 33 31 30 27 37 37 33 26 26 27 31 29 22 23 23 23 23 26
48 49 48 47 48 49 48 48 49 47 47 42 47 49 33 36 32 31 35 35 33 33 36 35 34 33 33 36 38 39 38 37 36 35 34 29 27 17 9 28 25 12 19 25 24 28 26
48 49 48 49 49 48 48 48 49 47 49 49 51 46 38 33 27 31 37 36 35 33 33 37 37 34 36 36 34 33 35 39 39 37 34 31 27 23 17 19 6 14 27 29 27 33 34
48 49 49 49 48 49 48 48 49 49 50 51 51 46 38 35 33 36 37 38 39 40 39 40 40 39 38 29 30 29 27 28 36 39 36 33 26 21 13 14 14 15 29 31 28 28 35
48 49 49 48 48 49 49 49 49 50 52 49 53 49 40 39 40 40 38 38 35 36 37 40 44 42 37 27 22 18 15 19 26 34 37 33 26 18 23 9 1 8 31 32 30 25 37
48 48 48 48 48 49 49 49 49 51 53 48 51 54 44 40 44 41 37 36 39 37 36 41 41 39 34 26 19 22 20 26 20 25 30 33 30 21 20 16 17 21 32 32 25 17 38
48 48 48 48 48 48 49 49 49 51 52 50 52 53 44 43 47 48 44 41 41 39 35 40 38 38 32 26 19 25 30 30 28 29 30 27 24 24 25 21 13 28 30 29 29 34 38
48 48 48 49 48 49 48 48 49 51 53 53 50 54 52 45 46 49 49 49 46 40 41 41 35 37 35 29 29 33 30 33 29 23 32 24 22 21 24 19 28 31 32 34 36 36 39